Theta_e
292 292 291 291 291 290 290 290 290 290 289 289 288 288 289 289 289 290 289 288 288 290 292 292 292 290 290 288 288 289 288 287 287 287 287 287 287 288 288 288 287 287 287 287 286 286 287 286 287 287 286 285 285 284 283 285 285 285 284 284 284 284 283 283 284 285 285 285 285 286 287 286 286 287 287 288 287 287 287 288 290 290 290 290 291 292 293
291 291 291 291 290 289 289 290 290 289 289 288 288 288 288 288 288 289 289 288 288 290 290 291 291 290 289 287 287 287 287 286 286 286 286 287 287 286 286 286 286 286 286 286 285 285 285 285 285 285 285 284 283 283 283 283 283 284 283 283 283 283 282 281 281 282 283 284 284 286 286 285 286 285 285 285 284 284 284 286 288 288 288 288 289 289 290
291 290 290 290 289 289 289 289 289 289 288 288 288 288 288 288 288 289 289 288 288 289 288 288 289 289 287 286 286 286 285 286 286 286 286 286 286 285 285 285 285 284 285 285 284 284 284 284 284 284 284 283 283 283 282 282 282 282 283 283 283 281 281 281 281 281 282 282 283 284 284 283 283 283 283 283 283 283 283 284 285 286 287 288 288 288 288
290 289 289 289 289 289 289 289 289 289 288 288 287 288 288 287 288 289 289 288 288 288 287 287 287 287 285 285 285 285 285 285 285 285 285 285 285 284 284 284 284 283 283 283 283 283 283 283 283 283 283 283 282 282 282 281 281 282 282 282 282 281 281 282 281 281 281 281 282 282 282 281 281 281 281 281 282 282 283 283 282 283 284 285 286 286 286
289 289 289 289 289 289 289 289 289 288 287 287 287 288 288 287 287 287 287 287 288 288 287 286 286 285 284 284 284 284 284 283 284 284 284 284 283 283 283 283 283 283 283 283 282 282 283 283 283 282 282 282 282 281 281 281 281 281 281 282 282 281 281 281 281 281 281 281 281 281 281 280 280 280 280 280 280 280 281 281 281 282 282 281 282 284 283
289 289 289 289 289 288 288 288 288 287 287 287 287 287 287 287 287 286 285 285 286 287 286 285 285 285 284 284 284 284 283 283 283 283 283 283 283 282 282 282 282 282 283 282 281 282 282 282 282 282 281 281 281 281 281 281 282 281 281 281 281 280 280 280 280 279 279 280 279 280 280 279 279 280 279 279 279 279 279 279 280 281 281 280 282 282 281
288 288 289 289 288 288 287 288 287 287 286 287 287 287 287 287 287 286 286 285 285 286 285 285 284 284 284 284 284 284 284 284 283 283 283 283 283 282 282 282 282 283 283 282 281 282 282 281 281 281 281 281 281 280 280 281 281 280 280 281 281 280 279 279 279 278 279 279 279 279 279 279 279 279 279 279 279 279 279 279 279 280 280 280 281 280 280
288 289 288 288 287 287 287 287 287 287 286 287 287 287 286 286 286 286 285 285 285 285 285 285 285 285 284 284 284 284 284 284 284 284 283 283 283 283 282 282 283 283 283 282 282 282 282 281 281 281 280 280 280 280 280 280 280 280 280 280 281 280 279 279 279 278 278 278 279 279 279 279 279 279 279 279 279 279 279 279 279 279 279 279 279 280 280
288 288 288 287 287 287 287 287 287 286 286 286 287 286 286 286 286 286 285 284 285 285 285 285 285 284 284 284 284 284 284 284 284 283 284 283 282 282 282 282 282 282 282 282 282 282 282 281 281 281 280 280 280 279 279 279 279 279 279 279 280 280 279 279 279 278 277 278 278 278 278 278 278 278 278 278 278 279 279 279 279 279 279 279 279 280 279
288 287 287 287 287 287 287 286 286 286 286 286 286 286 286 286 286 286 285 285 285 285 285 285 285 284 284 284 284 284 284 284 283 283 283 283 281 281 282 282 281 281 281 281 280 280 280 279 279 279 279 279 279 279 279 279 279 279 279 279 279 279 278 278 278 277 277 277 277 277 278 277 276 277 277 277 277 277 278 278 278 278 278 279 278 277 274
287 287 287 287 286 286 286 286 286 285 285 285 285 285 286 285 285 285 285 285 285 284 284 284 284 284 285 284 284 283 283 283 283 282 281 282 281 281 282 281 281 280 280 280 279 278 278 278 278 278 278 278 278 278 278 279 279 279 279 278 278 278 278 277 277 276 276 277 277 277 276 274 275 277 277 276 277 277 277 276 275 274 274 274 274 273 270
286 286 286 286 285 285 286 286 286 285 285 285 285 285 285 285 284 285 285 284 284 284 283 283 284 284 283 283 282 282 281 281 281 281 280 281 281 281 280 280 280 279 279 278 278 278 278 277 277 277 277 277 277 277 277 277 278 278 278 278 277 278 277 277 277 276 276 276 276 275 274 274 276 277 276 275 276 275 275 274 270 268 269 270 270 270 268
286 286 285 285 285 285 286 286 285 285 285 284 284 284 285 284 284 284 284 283 283 283 283 283 284 283 282 281 281 281 280 280 280 281 281 280 280 280 279 279 279 278 278 277 277 277 277 277 277 277 277 276 276 276 276 276 276 276 277 277 277 277 277 276 276 276 276 275 275 274 274 275 277 276 274 273 273 273 274 274 269 265 266 267 266 267 266
285 285 285 285 285 285 285 284 284 283 283 283 284 284 284 284 283 283 283 283 283 283 283 282 282 281 280 280 280 280 280 280 280 281 280 279 279 279 278 278 278 278 277 277 277 277 277 276 276 276 276 276 275 274 274 274 275 275 275 276 276 276 276 276 276 276 275 275 275 275 275 276 276 274 271 270 270 270 271 274 269 263 263 265 265 265 265
284 284 285 285 285 284 283 283 283 283 283 283 283 282 282 282 281 282 282 282 282 282 281 280 279 279 279 280 280 279 279 279 279 280 278 277 277 278 277 277 277 277 276 276 276 276 276 275 275 274 274 274 273 273 274 274 275 275 275 276 276 276 276 276 275 276 276 275 275 274 275 275 273 271 269 268 269 269 269 272 270 263 262 264 264 263 264
284 284 284 284 283 283 283 283 283 282 282 282 281 281 281 280 279 280 281 281 281 281 278 275 276 278 279 279 280 279 279 278 278 278 277 277 277 277 276 276 277 276 275 275 275 275 275 275 274 273 274 274 273 273 273 273 274 275 275 276 276 276 276 276 275 275 275 275 274 274 274 274 271 269 268 267 268 269 269 272 270 263 261 263 263 262 263
284 284 283 282 282 283 283 282 282 281 281 280 280 280 279 278 278 279 280 280 281 278 274 273 275 278 279 278 278 278 278 278 278 277 277 277 276 276 275 276 276 276 275 275 275 275 275 274 274 274 274 274 273 273 273 273 273 274 275 276 275 275 276 276 275 275 275 275 274 274 274 272 268 267 267 267 267 268 269 272 270 263 260 262 263 262 262
283 282 282 282 282 282 281 281 280 280 279 279 279 279 277 277 277 278 279 280 280 277 273 272 275 276 276 276 277 277 277 277 277 277 277 277 276 275 275 276 276 275 275 275 275 275 274 274 274 274 274 273 273 273 273 273 273 274 275 275 274 274 275 275 275 275 275 275 274 274 273 270 266 266 266 265 267 269 271 271 267 261 260 263 263 262 262
282 282 282 282 282 281 280 279 279 279 278 278 278 277 276 276 277 277 279 280 279 275 272 271 273 273 273 274 275 276 276 276 276 276 276 276 275 274 275 275 275 275 275 274 274 274 274 274 274 274 274 273 273 273 273 273 274 274 274 274 274 274 274 274 274 274 275 274 274 274 273 267 263 264 265 265 269 272 269 265 262 259 261 263 262 262 262
281 282 282 282 281 280 279 278 278 277 277 277 278 277 276 276 276 276 278 278 276 273 271 271 271 271 271 272 272 272 273 274 274 274 275 275 275 274 274 274 275 275 275 274 274 274 274 274 274 274 274 274 274 274 274 274 273 273 273 273 274 273 273 273 274 274 274 274 273 274 273 266 261 264 267 266 268 267 263 260 261 261 261 262 261 261 261
282 281 281 281 280 279 278 278 277 276 275 276 277 277 276 276 276 276 278 278 276 273 271 270 270 270 270 271 270 270 271 271 271 272 272 273 274 274 274 274 274 274 274 274 274 274 274 274 274 274 274 274 274 274 273 273 273 271 270 271 273 273 272 273 274 273 273 273 273 271 268 264 261 264 265 264 262 261 259 260 261 261 261 261 260 260 260
281 280 281 281 280 279 278 277 276 276 275 275 277 276 275 275 275 275 276 276 274 272 270 270 270 270 270 270 270 270 270 270 270 271 271 272 274 275 274 274 274 274 274 274 274 274 274 274 274 274 274 274 274 274 273 273 273 270 269 270 271 270 268 268 270 271 270 271 270 266 262 261 261 262 261 260 259 259 259 259 260 260 260 260 259 259 259
280 280 281 280 279 278 277 276 276 275 275 274 275 275 275 275 275 275 275 274 272 271 271 271 271 271 270 270 270 270 270 270 270 271 270 270 272 274 275 274 273 273 274 274 274 274 274 274 274 274 274 274 273 273 273 273 273 272 270 268 266 264 263 264 267 269 269 267 265 262 261 261 260 260 260 259 259 259 259 258 258 259 259 258 258 258 258
280 280 280 280 279 277 276 276 275 275 274 273 274 274 274 274 275 275 274 274 273 272 271 271 271 270 269 269 269 269 269 270 270 271 271 270 271 272 273 272 272 273 273 273 273 273 274 274 274 274 274 273 272 272 273 273 272 272 271 268 265 262 262 263 266 268 269 267 263 261 261 261 260 260 260 259 259 258 258 258 258 258 258 257 257 257 257
279 279 280 280 279 277 277 276 275 274 273 272 273 273 273 273 273 274 274 274 274 273 272 270 269 269 269 269 269 268 269 269 270 270 271 270 270 271 272 271 271 271 271 271 272 273 273 273 274 274 273 272 271 272 273 272 270 269 270 270 268 264 263 264 266 266 267 266 262 260 261 261 260 260 260 259 258 258 257 257 257 257 257 257 256 256 256
278 278 279 279 279 278 277 276 275 274 273 272 272 272 272 271 272 273 273 274 274 274 273 271 269 268 269 269 268 268 268 269 270 270 269 269 270 270 271 271 271 270 271 271 272 272 273 273 273 274 272 270 269 270 270 269 267 267 269 267 264 263 264 265 265 265 265 264 261 260 261 261 260 259 258 258 257 257 257 257 257 256 256 256 255 255 255
277 277 277 278 278 278 277 276 276 274 273 271 271 271 271 270 271 272 272 272 273 274 274 271 269 268 268 267 267 267 268 269 269 269 269 268 269 269 269 270 270 270 271 272 272 272 272 272 272 271 269 267 266 266 266 265 264 266 267 263 260 262 265 265 265 266 266 263 260 259 261 261 260 259 258 257 257 256 256 256 256 256 255 255 254 254 255
277 277 277 277 277 277 277 277 276 275 274 272 272 272 271 270 270 270 271 271 272 273 273 271 269 268 268 267 267 267 267 268 269 269 268 268 268 268 268 268 269 270 270 271 271 271 271 270 269 267 265 265 265 265 265 264 264 266 266 262 260 262 263 262 263 264 263 260 257 257 258 258 258 259 258 257 257 256 256 256 255 255 254 254 254 254 254
276 276 276 276 276 277 277 277 276 275 274 273 273 273 273 272 270 270 271 272 272 273 272 271 269 269 268 267 266 266 266 268 268 268 268 267 267 267 267 267 268 269 268 269 269 268 267 265 264 264 264 264 265 266 266 265 266 266 263 259 258 258 258 258 259 259 259 257 257 257 257 257 257 257 257 256 256 256 255 255 254 254 254 254 254 253 253
276 276 275 275 274 274 275 276 276 274 273 273 273 273 274 273 271 270 270 271 272 272 272 271 269 268 267 266 265 265 265 267 268 268 269 268 267 267 267 267 268 268 267 267 267 266 265 263 262 262 262 263 264 265 265 265 266 264 259 257 257 258 257 258 258 258 258 257 257 256 256 256 256 256 256 256 255 254 254 254 254 254 254 253 253 253 253
275 275 275 275 274 273 273 273 273 273 272 272 272 272 272 272 271 270 269 270 271 271 271 271 269 268 267 266 265 264 264 265 266 267 269 269 267 267 266 266 266 267 266 265 265 264 264 263 262 262 262 264 265 264 263 264 266 264 258 257 257 257 257 257 257 257 257 257 256 255 255 255 256 256 256 255 254 253 253 253 253 253 253 253 253 253 252
275 275 275 274 274 273 272 271 271 272 271 271 270 270 269 270 270 269 269 270 270 271 271 270 269 269 269 267 265 264 264 265 266 267 268 269 267 267 266 265 265 266 266 265 264 263 261 261 261 261 261 262 263 262 262 263 265 262 258 256 256 256 256 256 256 256 256 255 255 255 255 256 255 255 254 254 253 253 253 253 253 253 253 253 253 252 253
276 275 274 274 274 273 273 272 271 271 271 270 269 269 268 268 268 269 269 270 269 268 268 269 269 270 269 267 265 264 264 265 266 266 268 268 267 266 267 266 265 265 265 264 263 261 260 260 261 261 260 260 261 261 262 262 262 259 256 255 256 256 255 255 255 254 254 254 254 254 255 255 254 254 253 253 253 253 253 253 253 253 252 252 252 253 253
276 275 274 274 273 273 273 272 272 271 271 270 269 269 268 268 268 268 269 269 268 267 267 267 268 268 268 267 266 265 264 265 265 265 266 267 267 266 266 267 266 265 263 262 262 261 261 261 260 260 260 260 260 261 262 261 258 256 255 256 256 255 254 254 254 254 254 254 254 254 254 253 253 253 253 252 252 253 253 252 252 252 252 252 252 253 253
276 275 274 273 273 273 272 272 271 271 270 270 269 269 268 268 268 268 269 269 269 268 267 266 266 266 267 268 267 265 264 264 265 264 265 266 266 266 265 266 267 265 262 261 262 262 261 260 260 261 261 261 261 262 262 261 258 256 255 255 255 254 254 254 254 254 254 253 253 253 253 253 252 252 252 252 252 252 252 252 252 252 252 252 252 252 252
276 275 274 273 272 272 272 272 271 271 270 270 269 269 269 268 268 268 268 268 267 267 266 265 263 263 264 265 266 265 264 265 265 265 265 265 266 266 266 266 266 263 261 261 262 261 260 260 260 261 262 262 262 262 261 259 257 256 256 255 255 255 254 254 254 254 253 253 252 252 252 252 252 252 252 252 252 252 252 252 252 252 251 251 252 252 251
276 275 274 273 272 271 271 271 270 271 271 270 270 269 268 268 269 268 267 266 265 265 264 264 262 260 260 262 263 264 264 265 264 264 265 266 267 267 266 266 266 264 262 262 262 260 259 259 259 260 262 262 261 260 258 257 257 256 256 255 255 255 254 254 254 253 253 252 252 252 252 252 252 252 252 252 252 252 252 251 251 251 251 251 251 251 251
276 275 274 273 272 271 271 270 270 271 271 270 270 270 269 267 267 267 265 264 264 264 262 262 261 259 259 261 263 264 264 264 263 264 265 266 267 267 266 267 267 266 265 263 261 259 259 259 258 259 261 261 259 258 257 257 257 256 255 255 255 254 254 254 253 253 253 253 254 253 252 252 252 252 252 252 252 251 251 251 251 251 251 250 250 250 250
276 275 274 273 272 271 270 269 269 271 271 269 268 269 268 267 268 268 265 263 264 264 262 261 260 259 259 260 262 263 263 262 263 263 264 264 266 266 266 266 266 265 265 264 261 259 260 261 259 259 260 261 259 258 257 256 256 255 255 254 254 254 254 254 253 253 253 253 254 253 252 252 252 252 251 251 251 251 251 251 250 250 250 249 249 249 249
276 274 273 271 270 270 269 268 269 271 271 269 268 268 267 267 267 266 265 266 265 263 262 261 259 258 258 259 260 261 262 262 262 261 261 263 265 266 265 265 265 264 264 264 261 259 261 262 260 261 262 262 260 258 257 256 256 255 254 254 254 254 253 253 253 253 253 253 252 252 252 252 252 251 251 250 250 250 250 249 249 249 249 249 249 249 249
276 275 272 271 269 269 268 268 268 269 269 268 268 268 268 267 264 261 264 268 267 262 260 260 260 259 259 258 258 260 261 261 260 259 259 262 264 265 264 264 264 264 264 263 260 259 260 261 261 262 263 262 259 258 256 256 256 255 254 254 254 253 253 253 253 253 253 252 252 252 252 252 251 251 251 250 250 249 249 249 249 249 248 248 248 248 248
275 273 271 270 269 268 268 268 268 268 268 270 270 268 265 265 265 264 265 266 265 261 260 261 260 260 260 258 258 260 260 259 259 259 259 261 264 264 263 262 263 264 264 261 258 259 260 261 262 263 262 260 258 257 257 256 256 255 254 254 253 253 253 253 253 253 252 252 252 252 251 251 251 251 250 250 250 249 249 248 248 248 248 248 248 248 248
272 271 270 270 269 268 269 269 268 268 269 271 272 270 268 267 268 267 265 263 261 260 261 261 260 261 261 259 259 259 260 260 261 260 259 261 262 261 261 262 263 263 261 259 259 261 262 262 263 264 261 259 258 257 256 256 255 254 253 253 253 253 253 252 252 252 252 252 251 251 251 251 250 250 250 249 249 249 249 249 249 248 248 248 248 248 248
270 270 270 270 269 269 270 271 269 269 271 271 271 272 272 270 269 268 267 264 261 260 260 259 259 260 260 259 258 259 260 261 262 261 260 260 260 260 261 263 262 261 260 260 260 261 262 263 263 262 259 257 258 257 256 256 255 254 253 253 253 252 252 252 251 251 251 251 251 251 250 250 250 250 249 249 249 248 249 249 249 249 249 248 248 249 249
271 270 271 271 270 270 272 272 271 270 272 272 270 270 271 270 269 268 265 262 261 260 259 258 258 258 259 258 259 259 259 259 260 261 260 259 260 261 261 261 260 259 260 261 261 262 264 264 263 261 259 258 258 258 256 255 254 253 253 252 252 251 251 251 251 251 251 251 251 250 250 250 250 249 249 250 249 249 249 249 249 249 249 248 249 249 250
270 269 271 273 273 270 270 273 273 272 270 269 268 268 268 268 267 265 261 259 259 260 259 257 257 258 258 259 259 259 258 257 259 260 258 259 261 262 260 260 260 261 261 262 263 265 266 266 263 261 261 260 258 257 256 253 250 249 251 253 252 251 251 251 250 250 250 250 250 250 250 249 249 249 249 250 250 250 250 250 250 250 249 248 249 249 250
269 267 270 274 274 270 269 271 271 269 266 265 264 264 264 262 262 260 258 257 259 259 257 256 257 258 258 258 259 259 257 257 258 259 259 259 261 261 259 260 261 262 263 266 267 267 266 264 262 261 260 259 257 257 256 253 249 247 248 249 249 249 250 250 250 250 251 251 250 250 250 250 250 249 249 250 251 251 251 251 250 250 250 249 249 250 250
269 268 271 274 274 272 271 269 266 263 262 261 259 258 258 259 261 260 257 256 257 258 257 256 257 258 258 258 258 259 258 257 258 260 259 260 262 263 262 263 263 262 263 265 267 266 265 263 262 260 259 258 257 256 256 254 251 247 246 246 247 249 250 251 250 251 252 251 250 250 250 250 250 250 250 250 251 252 252 251 251 251 251 251 251 251 251
268 268 269 269 269 267 265 263 264 264 262 258 257 257 258 260 261 259 257 256 256 257 256 256 257 259 259 258 258 259 259 259 260 260 260 260 262 264 264 265 266 266 265 265 265 265 264 262 260 259 258 257 256 256 255 253 251 249 248 248 250 251 251 251 251 252 252 251 250 251 251 250 250 250 250 250 250 251 252 252 252 252 252 252 252 252 252
266 268 268 268 268 267 263 262 266 268 264 259 259 260 260 261 261 258 256 255 255 255 255 257 258 259 258 258 259 261 260 259 259 260 261 262 262 262 263 265 267 267 266 265 264 264 263 260 259 259 258 257 256 256 254 251 250 251 251 252 252 252 252 252 252 252 252 252 251 251 251 251 251 251 250 250 250 251 252 253 253 253 253 253 252 252 252
267 268 267 266 268 268 267 267 271 272 268 264 263 261 260 261 261 258 255 255 255 257 258 259 258 258 259 261 262 263 262 259 259 260 262 263 261 261 263 267 268 267 266 265 264 262 261 260 259 258 258 258 256 254 252 252 253 253 253 253 253 252 252 252 252 252 253 253 252 252 252 252 252 251 251 251 251 251 252 254 255 254 253 253 253 252 253
269 269 266 262 262 264 265 267 269 269 267 265 264 262 261 261 259 256 254 255 257 259 260 259 257 259 262 263 263 262 262 261 261 263 263 263 262 262 265 268 268 266 265 264 262 261 260 259 258 257 257 257 256 254 253 254 254 254 253 253 253 253 253 253 253 253 253 253 253 253 253 253 252 252 251 251 251 250 252 254 255 254 253 254 254 253 253
Wind_Speed
9 10 11 11 12 13 14 15 16 17 17 15 15 13 6 3 4 7 11 12 11 6 2 1 1 1 1 1 1 3 4 3 3 4 4 3 1 1 1 2 2 1 1 2 3 3 1 2 3 3 1 2 4 3 3 4 4 2 2 1 3 4 2 2 4 5 5 6 8 8 7 6 4 4 3 2 2 3 2 3 3 3 4 4 4 5 4
9 10 10 11 12 12 13 14 14 15 15 14 13 9 3 3 5 4 6 9 8 4 1 2 1 0 3 2 3 5 4 3 3 3 3 3 2 2 2 2 1 1 2 2 1 2 2 1 2 0 2 2 4 3 4 5 3 2 1 1 1 2 0 1 1 5 5 3 4 4 4 4 3 2 3 2 5 7 5 3 3 3 5 6 6 5 3
9 10 10 11 11 11 12 13 13 14 14 13 10 6 3 4 3 2 2 5 5 2 1 3 3 3 5 2 3 4 2 2 3 3 4 4 0 1 1 1 1 1 1 1 0 1 2 1 2 2 1 1 3 2 3 5 3 2 1 2 1 1 2 1 1 5 6 4 3 1 2 3 2 3 6 6 7 7 5 2 4 4 5 9 8 6 5
9 10 10 11 11 11 12 13 12 13 13 13 11 7 4 2 1 1 1 1 2 0 1 2 2 3 5 3 2 2 1 2 4 3 3 4 2 2 4 3 2 2 1 1 1 1 3 4 2 2 3 2 2 1 2 3 1 2 4 4 0 1 3 3 4 7 7 7 6 6 7 6 6 8 10 9 8 7 4 3 5 5 6 8 8 7 8
9 9 10 10 11 11 12 12 12 13 13 12 10 6 3 1 0 2 2 1 1 0 2 3 3 3 3 2 2 2 3 4 4 2 1 1 2 1 4 3 1 1 2 0 2 3 3 5 6 5 4 2 0 1 2 1 4 6 5 3 0 1 3 6 6 8 9 9 9 9 9 8 8 10 13 13 11 10 7 7 8 7 7 9 9 11 11
8 9 9 10 10 11 11 11 12 14 14 12 8 4 2 1 0 1 2 1 1 1 2 2 3 3 4 3 3 4 5 5 3 2 3 2 2 2 1 1 2 3 4 2 2 3 3 4 7 6 3 1 1 1 1 1 5 5 2 2 2 1 4 5 5 7 9 9 9 9 8 8 8 9 12 14 15 15 13 11 10 9 9 9 11 14 13
8 9 9 9 10 10 11 11 13 14 13 10 6 3 1 2 2 1 2 1 3 4 3 4 5 6 6 4 4 6 7 7 7 4 2 2 1 2 1 3 3 4 4 3 4 5 4 4 4 3 1 1 1 1 2 2 3 2 2 3 2 2 3 6 6 7 9 10 10 10 9 9 9 10 12 13 15 17 17 15 13 12 12 12 13 16 16
8 8 9 9 10 10 11 12 12 13 12 9 5 2 2 2 2 2 2 3 4 5 5 5 6 5 5 5 4 5 6 7 7 3 1 2 2 2 3 5 6 5 5 4 6 8 6 5 4 1 0 2 1 1 2 1 1 2 2 2 3 2 4 7 5 5 7 9 9 10 10 11 11 11 12 13 14 15 16 15 14 13 13 14 14 16 14
7 8 8 9 10 10 10 11 11 12 12 8 4 1 1 2 3 2 3 4 4 4 3 3 5 4 4 6 5 4 4 4 5 2 4 4 3 1 1 3 2 3 4 5 7 7 4 3 3 1 0 2 1 0 1 2 1 2 2 1 3 3 3 3 3 4 7 7 7 8 9 10 10 10 11 13 12 12 11 11 12 12 13 14 14 11 6
7 8 9 9 10 10 10 10 11 13 13 7 3 3 3 3 3 2 2 3 3 4 3 3 4 3 2 3 3 3 4 4 6 4 2 1 1 1 1 1 1 2 5 4 2 3 3 3 3 3 2 0 1 1 2 2 2 2 2 1 1 2 1 2 2 5 7 5 3 4 5 7 7 6 8 12 12 12 13 12 12 11 9 10 8 3 3
7 8 8 9 10 10 10 11 12 14 13 8 3 5 5 4 3 2 2 3 3 3 4 4 4 2 2 3 3 3 4 5 6 3 0 2 2 2 2 2 1 2 3 0 3 5 4 3 2 1 2 2 4 4 5 5 5 4 3 2 2 3 3 3 3 3 6 5 3 4 6 7 6 3 5 9 9 9 10 6 3 4 4 3 2 4 7
7 8 9 9 9 9 10 11 11 11 12 9 4 5 5 4 3 2 2 4 4 3 4 4 4 3 3 4 4 4 4 3 2 2 3 3 2 1 1 1 1 1 3 3 4 4 2 1 1 2 4 4 5 6 6 7 7 6 5 4 4 4 3 3 3 3 4 4 2 5 8 6 4 2 2 4 4 5 5 3 8 9 8 7 6 7 9
7 8 9 9 9 10 10 10 10 9 10 9 7 6 6 5 3 3 2 4 5 4 4 5 4 3 5 5 4 3 3 3 4 5 3 3 2 0 1 1 1 3 5 5 4 3 1 3 3 4 4 3 4 5 6 7 9 8 7 6 5 4 3 3 3 3 3 2 3 7 6 3 3 2 3 5 5 6 5 1 5 8 8 7 6 7 8
8 8 9 9 9 10 10 11 11 10 9 8 7 5 5 4 3 2 2 3 4 3 4 5 3 4 6 5 3 3 4 5 5 4 1 1 2 2 3 4 5 5 5 3 2 2 1 2 2 2 2 2 2 2 3 4 6 7 7 7 7 6 4 3 3 3 3 3 4 6 6 5 5 1 4 5 3 4 3 1 1 5 7 7 6 7 8
8 8 9 9 9 10 11 11 10 10 9 7 5 4 5 6 6 4 3 2 4 3 3 3 3 4 5 4 3 3 4 4 4 2 1 1 2 4 5 5 5 6 4 2 1 0 1 1 1 2 2 1 1 2 1 2 3 3 5 5 4 4 4 4 3 3 3 3 4 4 6 5 1 2 4 4 3 3 3 1 1 3 6 8 7 7 9
8 8 8 9 10 9 9 9 9 10 10 7 4 4 5 6 6 5 3 2 3 1 2 3 5 4 3 3 1 1 2 3 4 3 1 1 2 3 4 5 5 5 3 1 0 1 1 1 1 2 2 1 1 1 1 2 2 3 3 2 2 2 2 3 2 2 2 3 4 4 4 2 2 3 3 5 5 4 2 1 0 2 6 7 6 7 8
8 8 9 9 9 8 8 9 9 10 10 7 4 3 5 6 5 3 2 2 1 1 2 6 6 3 2 3 2 1 2 2 2 2 1 1 1 1 3 4 3 3 2 1 1 1 1 2 2 2 2 1 2 1 1 1 1 2 3 3 2 2 2 2 3 3 4 5 5 3 2 0 2 3 5 6 7 5 1 1 1 2 4 6 5 6 7
8 8 9 8 9 9 9 10 10 10 9 7 3 4 6 6 4 1 1 2 1 2 4 9 5 1 2 2 1 2 2 1 2 2 1 1 2 1 2 2 2 1 2 1 2 1 1 2 2 1 2 0 2 0 0 2 0 1 1 2 1 2 2 2 3 4 5 6 5 3 1 2 1 4 6 7 7 2 1 2 1 1 5 5 5 6 6
8 8 8 8 9 10 10 10 11 11 10 7 3 4 7 7 4 2 1 2 1 2 5 10 7 4 4 3 1 2 2 1 2 2 2 1 1 1 2 2 1 0 1 1 2 1 1 2 1 1 1 1 1 0 1 1 0 0 1 1 1 1 1 2 2 3 4 3 2 3 2 1 1 5 6 5 3 1 1 2 3 3 4 5 5 5 5
8 8 8 8 9 10 10 11 12 11 10 7 4 6 8 8 6 4 2 2 3 4 4 8 8 7 8 6 4 3 2 1 2 2 3 2 0 1 3 1 1 1 0 0 1 1 0 1 0 1 1 2 1 1 1 1 1 0 0 1 1 0 0 2 2 1 1 1 1 3 3 1 1 5 4 2 1 1 1 2 1 2 3 5 4 5 5
8 8 8 7 8 9 10 12 13 11 8 5 4 7 9 8 7 6 3 3 4 3 2 6 11 13 13 12 10 7 5 4 3 2 2 3 1 1 2 1 0 1 1 0 1 1 0 1 0 1 1 1 1 1 0 1 2 2 1 0 1 1 1 2 2 1 0 2 2 2 2 1 2 3 1 2 2 2 1 1 2 2 4 4 3 5 6
9 8 8 7 9 10 11 12 14 12 9 5 5 9 9 8 9 7 4 7 10 7 6 9 13 15 15 14 12 10 8 7 5 3 2 3 2 1 1 2 1 1 1 1 2 1 1 1 1 0 1 1 1 1 1 0 2 2 1 0 1 1 1 1 1 1 1 2 1 1 3 3 3 2 2 3 3 3 3 2 3 3 3 3 4 6 7
8 8 8 8 9 10 11 12 13 14 12 7 6 10 10 8 9 7 7 12 14 10 8 9 8 9 11 12 11 9 9 8 7 6 3 1 2 3 0 1 1 2 1 2 2 2 2 3 2 1 2 1 1 1 1 2 2 1 1 1 0 1 1 2 0 2 1 1 2 3 4 3 3 2 3 4 3 3 3 3 3 3 4 4 5 6 8
8 8 8 8 9 10 11 13 14 14 13 10 9 11 11 9 8 7 7 9 8 4 5 5 3 2 5 7 7 9 11 11 9 6 4 2 2 2 1 3 3 2 1 3 4 2 2 2 1 1 1 1 2 1 2 3 1 1 1 0 0 0 0 1 1 1 2 1 1 3 3 3 4 4 4 4 4 3 3 2 3 4 4 5 6 7 8
9 8 8 7 8 9 10 12 14 15 15 12 9 10 10 9 7 5 4 4 4 2 2 2 2 3 3 3 6 9 12 12 9 6 5 4 2 3 3 5 5 3 2 5 5 2 2 3 2 2 2 1 2 1 2 1 0 1 0 1 1 1 1 2 2 1 1 1 2 1 1 2 2 3 2 3 3 3 3 3 4 5 5 6 7 8 8
9 9 8 7 6 6 8 10 12 14 15 14 13 14 13 11 6 2 2 1 1 2 2 2 2 5 5 6 7 8 10 10 8 6 7 6 4 3 6 6 5 5 5 5 3 2 2 3 2 2 3 1 2 1 1 1 1 0 0 2 1 1 2 2 2 1 2 1 2 2 1 2 4 4 3 3 3 3 4 5 5 5 4 5 8 10 9
10 9 9 7 6 5 6 7 10 11 11 12 16 19 19 17 11 6 4 4 1 1 2 2 1 2 7 9 9 9 9 10 9 7 8 9 7 5 4 3 3 4 4 3 3 2 2 2 2 1 1 1 2 0 1 0 1 1 1 2 2 2 1 2 2 2 3 2 0 2 1 1 1 2 3 4 4 5 6 6 4 3 4 5 7 10 11
12 11 10 9 7 6 5 5 7 8 7 6 10 15 18 20 17 10 7 6 3 0 1 3 2 3 3 7 11 11 8 9 8 7 8 9 9 9 9 6 2 2 2 1 1 1 0 1 1 1 1 1 1 1 1 1 1 2 2 1 1 1 0 1 1 2 1 1 1 1 1 2 4 3 3 4 5 5 6 6 4 4 6 8 8 8 8
13 13 13 10 8 7 5 5 5 5 4 3 5 8 11 14 16 13 8 7 7 4 2 3 3 2 1 4 11 13 10 7 7 6 6 8 9 9 9 8 5 2 1 1 1 2 2 1 1 0 0 1 1 1 0 1 1 2 2 0 1 1 1 2 1 1 0 2 2 1 2 4 5 5 6 6 5 5 4 4 5 7 9 10 10 9 8
14 15 15 13 11 10 7 5 3 2 3 4 3 1 3 5 11 13 7 5 6 5 3 2 2 1 1 2 9 15 13 8 6 5 4 6 8 8 7 6 5 4 3 1 2 2 2 2 2 0 1 1 1 1 1 1 2 2 2 2 1 1 0 1 1 1 1 2 2 3 3 4 5 7 7 5 5 6 5 5 8 10 11 11 11 11 11
14 15 16 16 16 15 12 8 5 3 5 6 3 1 1 0 7 11 7 4 3 3 3 2 2 1 1 1 4 12 13 8 6 6 4 3 5 7 7 5 4 5 4 2 2 2 1 1 2 0 2 3 1 1 1 1 2 3 2 3 2 0 1 2 2 2 3 4 4 4 5 5 4 5 4 3 7 9 8 9 10 12 12 12 12 13 14
14 15 15 16 18 18 17 15 12 11 15 18 14 8 3 3 8 8 4 3 3 3 3 2 2 1 0 2 1 11 12 6 4 5 4 2 3 4 5 5 3 4 5 3 1 2 1 0 1 0 1 3 3 0 1 2 3 3 3 3 1 1 1 2 3 3 4 4 3 3 4 3 0 1 3 7 11 12 10 10 12 12 12 13 13 14 14
12 13 14 15 15 16 16 16 15 16 20 22 20 18 16 11 6 2 3 4 5 5 3 2 2 0 1 3 1 11 13 4 2 4 3 2 2 2 1 3 3 3 6 3 1 1 0 1 1 0 1 1 2 1 2 3 3 3 4 3 1 0 1 2 3 2 3 2 2 2 3 3 3 6 9 11 12 12 11 11 11 11 11 11 11 12 11
11 11 12 12 12 13 12 11 12 13 14 14 14 16 20 18 12 5 4 4 7 6 4 3 1 0 2 2 2 8 10 4 1 3 2 2 4 2 1 1 2 0 4 3 2 1 0 0 1 1 1 1 0 1 3 4 3 4 3 2 1 1 1 3 3 2 2 3 4 6 7 7 8 9 10 10 10 11 10 10 9 9 8 8 8 9 9
10 10 10 10 10 10 10 9 10 11 11 10 8 7 9 13 16 13 6 4 4 3 2 3 2 1 2 1 1 5 7 3 1 1 1 2 3 1 1 1 0 0 1 1 1 1 1 1 0 1 1 1 0 3 4 3 4 4 3 3 2 2 1 2 2 2 2 2 4 7 8 8 7 7 6 6 8 9 8 8 8 8 6 6 7 9 9
11 10 9 8 8 8 8 8 9 8 6 5 4 4 5 6 10 14 14 13 11 6 2 2 3 2 1 1 2 4 7 3 1 2 2 2 2 0 1 1 1 1 0 1 1 1 0 1 0 1 1 1 2 4 4 4 5 5 4 5 4 4 3 3 3 2 3 4 5 7 7 6 6 6 5 5 7 8 7 6 6 6 6 6 7 8 8
11 10 7 5 5 5 6 7 7 5 4 3 3 5 7 4 3 7 12 14 14 10 5 3 2 1 0 1 2 4 6 3 2 3 2 2 2 1 1 1 1 2 1 1 1 0 0 1 0 1 2 2 3 4 5 5 5 5 4 4 4 4 4 4 3 3 4 6 6 5 5 5 5 5 4 4 5 5 5 5 5 6 6 7 8 8 9
12 7 3 3 2 2 2 3 3 3 4 3 1 2 4 3 2 4 5 5 6 7 5 4 2 1 0 1 2 4 4 1 2 3 2 1 2 1 1 0 0 1 1 1 1 1 0 0 1 2 3 2 1 3 5 5 5 5 4 4 4 4 4 4 3 3 3 5 5 3 3 4 5 4 4 4 5 6 7 8 8 8 8 9 10 11 12
11 4 2 2 2 2 1 1 2 4 4 1 2 2 2 2 2 2 2 2 2 2 3 3 2 1 0 1 2 4 4 2 2 3 2 2 2 1 0 0 1 1 1 2 0 1 1 1 1 2 3 2 1 3 4 5 4 4 5 5 5 6 6 6 6 6 6 5 5 5 4 5 6 5 4 4 6 7 9 10 10 10 11 12 12 13 13
7 2 1 1 2 3 3 4 4 4 3 0 3 2 1 2 2 0 1 2 2 1 1 2 1 1 1 1 2 2 4 3 0 1 2 3 2 1 0 1 1 1 1 2 1 1 1 1 1 1 3 4 3 3 4 5 4 5 6 6 7 7 7 7 8 8 8 9 9 10 9 10 10 9 8 7 7 7 9 11 12 12 13 13 14 14 14
5 2 1 3 5 6 6 5 4 2 1 1 2 2 1 1 1 0 1 2 1 1 0 1 1 1 0 1 3 3 3 3 1 1 1 3 3 1 0 1 1 1 1 2 0 1 1 1 2 3 3 4 4 4 5 4 4 5 6 7 7 7 7 8 8 8 9 9 10 10 11 11 11 12 12 12 11 11 12 14 15 15 14 14 14 15 15
5 4 4 7 9 7 5 3 3 2 1 1 1 1 1 0 0 0 1 1 0 1 1 1 1 1 2 2 3 2 1 1 1 1 1 2 2 1 0 0 1 0 1 1 0 1 0 1 3 4 4 4 4 4 5 5 4 4 5 7 7 7 7 8 8 8 9 9 10 11 11 11 12 13 13 13 14 14 15 16 16 16 16 16 15 15 15
6 6 7 7 5 3 1 1 1 2 2 2 1 1 2 1 0 0 0 0 0 0 0 1 1 1 1 1 2 2 3 3 1 1 0 2 2 2 1 0 1 1 1 0 1 1 2 3 4 4 4 4 5 5 5 5 4 4 5 6 6 6 7 7 8 9 9 9 10 12 11 12 13 13 13 13 14 15 16 16 16 16 16 16 16 16 15
8 6 3 2 1 1 1 1 1 1 1 1 1 1 1 2 1 1 1 1 1 1 1 1 1 1 1 0 1 1 2 2 0 1 0 1 1 1 1 1 1 1 0 1 0 2 3 3 4 3 3 3 4 5 5 5 4 4 4 5 5 6 6 7 8 8 9 9 10 10 11 12 13 13 13 13 12 14 16 17 16 15 15 15 16 17 15
5 1 2 2 2 1 0 1 1 1 1 0 1 3 3 2 1 2 2 1 1 2 2 2 2 1 2 1 1 1 1 1 1 0 0 1 1 0 1 1 1 0 1 0 1 2 3 4 3 3 4 5 6 6 6 6 6 5 3 3 5 7 8 8 8 9 9 10 10 10 11 12 13 13 14 13 12 12 15 16 16 15 15 15 16 17 16
2 1 2 2 1 2 1 1 1 0 2 2 2 3 3 2 2 3 2 1 2 4 3 2 2 1 2 1 0 0 0 1 1 1 0 1 0 1 1 0 0 1 1 1 2 3 4 4 4 4 5 6 6 6 6 6 5 6 4 4 5 6 7 7 9 10 11 11 11 11 11 12 12 13 14 15 14 13 13 14 14 14 14 15 16 17 17
1 1 2 2 1 1 0 1 1 1 1 1 2 2 2 2 4 3 0 0 3 4 3 2 2 2 2 1 1 0 0 1 0 1 1 1 1 1 1 1 0 1 1 2 4 4 4 3 3 4 5 6 6 6 6 6 6 7 7 7 7 8 8 9 10 11 11 11 10 11 12 12 12 12 13 15 15 14 13 12 12 12 12 14 16 17 17
1 1 1 1 2 1 1 1 1 1 1 1 2 2 2 2 3 2 1 1 4 5 3 2 2 1 0 0 1 1 1 1 0 1 1 1 0 1 1 1 2 2 2 4 4 3 3 4 5 5 5 5 6 6 6 6 6 8 8 9 10 11 11 11 11 11 11 10 10 12 12 12 12 12 13 14 15 14 12 11 11 12 13 15 16 15 14
3 2 2 1 1 1 1 1 0 1 2 2 2 2 3 3 3 3 3 3 4 4 2 2 2 1 0 0 1 0 1 1 1 1 0 1 0 1 1 1 3 3 3 4 4 3 3 4 5 5 5 6 6 5 6 6 8 9 10 11 11 11 11 11 11 11 10 10 11 12 12 12 12 12 12 13 14 14 13 12 13 13 13 13 13 13 12
4 2 2 1 1 1 2 1 1 2 2 2 2 3 4 4 3 4 5 4 3 3 2 1 1 1 1 1 1 0 2 2 2 1 1 1 2 1 1 2 4 4 4 4 4 4 4 4 4 5 6 7 6 5 6 8 9 10 11 11 11 10 10 11 11 11 10 10 10 11 12 12 12 12 12 12 14 15 16 15 13 10 9 9 9 11 12
2 1 0 0 1 2 3 3 2 3 4 4 3 4 5 4 3 5 8 7 4 3 3 2 1 1 1 1 1 2 2 1 1 1 2 3 2 2 2 4 6 5 5 4 4 4 5 5 4 5 5 5 6 7 9 10 10 10 10 10 10 10 10 11 11 11 10 10 10 10 11 11 11 11 12 13 14 16 16 14 10 7 8 9 9 11 13
1 1 0 0 1 1 1 1 1 1 2 2 2 3 4 3 4 8 12 9 4 3 3 2 2 2 1 1 2 1 1 0 0 2 3 3 2 4 5 6 6 5 5 4 4 4 5 5 5 7 7 6 7 9 10 10 10 10 10 10 10 10 11 11 11 10 10 10 10 11 11 11 11 11 13 14 14 14 15 14 11 9 10 11 11 12 13
Wind_Direction
350 349 351 352 353 354 353 351 352 353 358 2 352 340 327 314 315 320 332 345 355 342 261 131 78 144 32 345 304 355 351 336 353 2 360 350 342 341 342 358 360 350 24 12 8 7 348 224 234 255 305 47 96 108 54 28 10 21 57 58 73 81 56 296 278 289 292 296 304 303 309 317 294 275 287 308 347 348 287 265 295 305 283 287 278 244 214
353 352 353 354 355 355 354 353 355 359 5 5 351 341 339 310 289 287 326 352 359 334 304 14 330 65 60 19 339 345 334 323 333 329 324 335 42 42 334 342 33 69 75 59 350 344 2 189 183 239 360 74 122 118 70 56 29 27 64 274 32 58 62 143 312 302 290 277 276 277 295 309 315 333 323 354 27 5 341 316 299 268 239 247 258 250 241
355 356 356 356 356 357 357 356 358 2 7 5 350 334 321 305 270 216 303 353 359 340 37 10 321 359 31 12 323 316 300 339 359 343 313 301 231 91 294 231 202 300 3 45 335 298 296 233 145 87 17 109 108 84 78 81 80 105 145 260 202 186 246 169 299 283 279 271 255 305 350 315 314 324 305 318 346 338 335 329 281 265 244 243 247 257 266
358 357 356 356 357 357 356 356 1 4 4 358 344 326 317 323 321 293 274 41 24 34 96 26 333 15 18 350 342 344 286 326 356 359 313 285 270 273 272 268 292 302 299 317 295 266 270 265 259 294 276 245 87 78 107 88 69 269 298 303 303 144 257 244 231 247 263 268 273 309 323 299 290 300 298 300 304 298 303 286 264 280 288 266 266 296 299
358 356 356 358 359 357 356 358 2 1 2 2 348 321 309 306 278 339 346 20 359 131 85 36 14 31 13 334 351 350 293 290 321 347 263 285 25 330 267 251 244 199 151 207 271 251 249 259 266 275 275 269 21 185 138 91 284 282 296 293 171 130 250 244 239 246 259 269 278 296 300 286 288 298 296 293 291 283 272 258 258 276 288 276 281 299 300
358 355 357 359 359 358 357 357 355 354 1 7 357 324 316 334 282 23 22 325 303 3 61 37 352 325 307 285 272 279 275 273 282 271 240 224 115 95 263 243 215 211 193 195 266 272 258 245 244 245 246 268 302 266 153 198 261 277 282 229 194 180 247 254 256 260 265 270 274 277 276 274 274 276 280 284 286 284 274 262 255 256 261 270 284 290 287
357 356 359 360 360 358 355 353 350 351 357 1 351 333 357 338 301 20 56 339 307 318 312 298 288 273 272 270 248 249 255 253 255 259 257 246 160 121 189 251 246 239 229 233 264 267 267 257 233 213 225 292 317 326 302 254 231 213 208 235 214 148 241 251 246 256 264 263 265 266 264 266 262 256 258 263 269 275 277 276 272 262 260 266 274 276 275
355 358 0 0 359 354 353 356 351 348 354 356 338 323 357 342 329 12 354 294 280 277 265 268 271 258 256 262 244 242 254 259 270 276 151 237 256 146 188 246 259 270 278 278 266 259 262 272 263 201 196 273 278 286 289 277 191 182 183 243 254 217 244 256 257 271 266 257 260 262 259 261 260 255 254 254 256 260 265 273 278 276 272 269 266 265 267
359 2 360 357 356 353 357 358 347 344 354 356 328 323 35 332 313 309 294 290 286 275 249 249 274 273 264 263 263 276 276 287 314 306 179 209 254 192 279 294 300 300 283 269 270 276 288 303 305 331 252 261 290 312 155 114 128 234 217 243 268 251 250 269 276 270 263 259 260 264 269 273 270 263 262 262 262 261 262 266 269 271 276 279 277 273 276
4 1 359 358 357 357 357 351 342 345 356 357 323 333 10 330 293 264 263 281 288 286 281 273 275 276 282 279 279 283 286 322 335 311 211 133 24 124 209 284 280 283 275 267 301 2 50 60 35 36 55 262 263 239 234 220 207 238 254 266 264 252 259 276 256 256 267 270 280 299 302 283 267 259 257 260 261 263 265 265 267 274 282 283 282 303 5
2 1 4 3 360 358 354 348 348 352 359 10 340 312 334 338 302 278 268 268 274 297 293 283 279 291 334 329 317 321 337 358 355 331 307 3 10 134 164 201 223 271 275 326 67 67 86 107 111 136 178 220 246 242 244 246 233 222 229 233 230 226 228 247 247 255 271 279 315 315 281 262 262 263 258 262 267 273 274 275 315 352 2 348 357 39 21
6 8 7 3 359 357 351 350 354 353 356 9 359 312 334 2 327 288 271 274 288 304 286 282 298 318 348 2 6 11 14 10 330 273 255 284 305 124 158 222 245 3 31 41 39 40 50 187 222 242 238 246 264 265 261 260 257 245 233 228 237 235 226 239 243 243 265 283 308 265 253 255 270 259 276 296 323 349 337 33 60 38 22 18 16 19 13
13 9 6 3 360 357 354 355 359 356 350 356 358 337 341 354 314 268 266 279 281 289 294 297 316 359 25 32 25 356 331 298 277 267 262 275 289 27 86 67 61 49 40 24 16 35 14 276 272 268 265 284 304 297 278 261 254 251 241 230 228 230 221 231 240 244 258 259 238 246 261 313 291 255 24 5 12 24 4 29 61 30 21 22 5 356 1
14 9 6 5 2 1 4 4 1 354 342 341 355 356 351 1 350 290 293 292 276 293 317 310 328 14 16 9 351 320 318 309 287 268 248 3 351 44 55 48 52 51 34 5 7 68 78 282 294 290 286 323 333 303 294 268 251 245 240 230 217 210 210 220 229 226 233 242 244 256 280 295 273 259 43 22 11 21 358 276 68 26 22 19 358 350 354
14 11 10 10 9 7 6 6 5 4 359 352 6 18 11 16 11 335 313 301 286 303 340 334 337 355 345 334 347 338 320 316 311 312 68 51 40 62 49 24 35 49 37 14 354 339 309 295 324 312 291 285 269 274 334 343 308 271 254 243 217 204 208 209 219 220 220 247 262 265 270 271 237 88 55 32 3 327 312 291 102 32 15 11 4 356 350
18 18 20 17 14 11 12 19 22 20 17 14 23 27 13 11 4 333 302 283 282 302 8 333 306 293 299 311 345 359 317 329 334 335 15 51 59 61 23 3 25 51 41 22 192 274 308 240 218 285 269 194 171 279 318 351 333 314 310 336 32 353 266 208 222 253 244 252 263 260 258 259 83 55 16 12 346 312 306 301 252 4 355 355 2 356 348
27 29 25 19 20 25 30 32 25 16 14 12 19 40 22 9 3 342 300 277 273 99 18 335 304 267 310 342 349 5 354 334 322 310 295 99 94 332 328 349 19 55 50 360 259 215 262 250 229 256 260 153 122 273 289 29 320 314 348 19 24 329 285 209 218 247 243 249 261 265 258 169 62 11 351 340 322 319 341 255 261 343 327 332 356 350 342
36 31 27 28 38 42 39 31 23 20 22 22 38 68 39 21 20 23 281 269 160 108 6 351 350 7 351 330 316 3 360 311 313 322 296 141 103 23 324 336 352 61 101 51 335 282 266 264 232 249 280 121 98 306 326 91 169 259 20 26 328 290 268 231 229 247 254 257 259 260 236 125 70 332 324 317 310 316 141 230 227 276 295 316 356 346 338
38 38 42 48 52 48 40 35 31 29 28 31 64 80 44 34 44 65 302 303 83 92 1 360 19 33 349 313 264 338 2 330 319 323 313 328 75 308 286 269 290 331 112 39 324 280 248 261 217 146 274 243 133 183 194 123 59 247 74 16 298 281 264 239 226 241 261 258 257 283 287 119 36 306 304 307 305 181 175 239 205 215 280 327 355 343 344
49 55 55 55 56 51 44 39 34 29 30 37 77 89 63 49 49 52 40 49 94 101 33 22 44 49 35 46 55 8 355 2 344 344 350 346 318 292 310 332 71 351 355 239 290 262 230 275 224 113 244 237 133 103 225 264 342 10 116 247 250 221 76 248 254 274 266 215 227 283 280 176 316 307 306 321 6 153 205 279 216 215 321 343 340 334 347
61 58 55 61 64 55 46 40 30 24 30 43 95 99 78 60 54 57 71 98 102 113 71 59 70 68 60 63 63 51 51 53 21 1 348 330 318 354 346 346 288 314 325 335 297 279 171 261 347 80 258 237 125 123 224 303 314 322 2 17 245 32 105 225 255 32 93 228 242 243 209 136 360 327 341 70 62 78 71 339 334 342 348 351 331 323 334
61 58 62 74 70 55 46 41 32 30 43 68 126 114 92 73 65 61 73 87 82 91 111 100 88 81 73 68 64 60 61 58 41 27 353 316 306 290 232 200 222 314 360 351 316 325 340 312 329 324 279 266 228 199 137 182 273 299 8 76 238 322 102 168 212 18 195 223 222 153 144 108 58 42 110 110 90 69 47 1 323 319 341 355 334 317 319
60 64 73 81 73 59 51 47 40 41 49 67 114 114 105 97 86 80 95 96 90 96 119 122 111 86 64 51 50 52 51 46 32 20 19 347 299 297 291 100 340 314 8 11 332 334 328 316 330 323 294 305 6 313 264 228 230 214 110 114 321 351 54 93 100 301 319 42 82 98 120 125 106 95 108 111 102 73 37 4 327 320 330 333 319 309 312
65 70 81 86 78 68 62 56 52 51 54 65 93 104 106 108 106 106 114 113 110 113 122 126 126 53 17 16 30 38 32 27 19 12 21 32 342 319 51 46 360 314 4 2 340 328 301 295 311 297 284 33 65 279 245 233 241 67 105 182 349 21 70 111 169 295 332 343 105 97 118 153 148 137 132 120 96 63 30 348 317 314 315 312 309 307 308
74 74 83 90 86 80 71 62 57 57 59 66 88 107 104 94 95 115 125 130 148 147 109 101 52 9 355 18 37 27 15 11 12 21 29 19 345 281 290 329 332 298 299 325 325 317 278 277 272 249 266 4 65 261 239 214 267 28 105 219 199 136 180 209 182 175 216 194 129 97 194 178 121 111 127 116 89 51 9 326 303 300 301 308 312 311 308
76 76 81 87 93 93 79 67 64 64 65 68 76 85 81 66 64 109 118 94 165 153 118 122 49 25 45 55 30 6 4 9 14 27 27 15 354 299 288 302 308 287 275 281 289 290 279 280 281 268 277 350 58 16 280 224 231 288 213 222 204 141 167 180 157 197 243 215 63 18 255 161 102 80 69 53 28 357 336 317 301 298 308 317 315 308 301
73 74 78 80 91 103 95 81 73 69 69 70 69 70 67 57 52 60 55 44 53 192 95 114 137 52 72 61 25 358 3 12 13 24 28 21 21 16 353 328 298 282 274 256 247 252 256 263 283 306 297 34 50 8 240 223 302 279 227 202 190 183 183 154 150 248 265 234 15 346 328 162 142 89 68 39 1 336 319 309 308 323 331 324 311 303 299
73 72 75 78 87 99 105 102 88 78 77 73 63 62 60 51 45 46 53 54 56 70 86 102 147 173 116 50 19 10 12 9 8 26 32 24 30 37 31 20 345 289 301 291 241 229 246 272 294 46 92 42 356 275 165 80 350 267 230 197 157 184 298 69 148 267 295 127 150 321 342 269 281 323 17 3 337 322 310 312 329 332 320 314 307 301 302
75 72 72 78 86 93 101 116 117 98 84 88 75 65 61 49 38 38 57 70 66 67 103 115 110 125 143 17 11 13 17 12 8 23 35 31 33 37 31 25 21 12 5 4 54 74 71 45 37 58 298 317 320 317 103 141 237 238 223 171 62 69 4 22 9 266 350 78 73 334 288 266 285 317 325 320 326 334 326 324 326 313 305 305 301 296 297
78 73 71 72 77 86 97 112 129 122 102 123 134 91 80 58 27 25 43 71 64 67 100 130 113 82 122 28 5 3 6 12 9 5 22 39 37 31 26 25 26 31 42 41 33 62 108 91 66 61 277 294 242 269 310 231 241 254 221 180 116 92 262 326 307 263 303 360 3 335 295 275 287 294 287 297 353 1 339 316 311 307 304 303 300 297 297
84 78 74 72 72 75 78 84 107 143 125 115 112 353 100 34 346 360 27 62 55 63 78 91 133 153 133 128 7 357 356 356 353 342 343 39 47 40 39 37 15 13 39 66 40 54 115 68 37 10 289 329 336 269 290 266 251 253 204 175 163 131 288 306 314 323 330 336 342 328 291 268 270 273 264 317 354 344 322 307 306 305 303 303 301 297 295
90 83 80 78 77 76 78 81 89 98 93 89 84 73 68 291 309 339 31 74 71 79 74 81 143 159 312 179 29 4 358 343 329 339 348 29 33 29 52 69 51 20 36 68 75 52 64 307 350 182 290 339 358 318 254 252 242 222 183 167 167 297 298 313 325 332 335 338 342 324 289 254 147 8 319 321 324 317 303 299 302 303 302 301 299 295 293
98 89 85 85 83 82 83 81 80 85 86 85 79 63 44 24 357 14 79 73 64 66 56 69 146 347 308 186 122 9 6 358 328 348 9 41 3 320 83 117 132 29 25 40 120 57 7 243 268 65 240 304 2 20 247 243 216 177 171 181 201 235 276 299 308 308 307 291 247 246 263 275 315 317 306 302 302 298 294 296 301 302 301 298 296 298 300
108 96 90 90 85 83 86 84 84 90 87 79 68 52 39 32 34 57 110 93 70 63 47 47 113 335 356 160 144 11 12 20 360 352 9 26 8 343 253 183 184 21 17 36 133 123 351 241 354 334 253 229 358 285 253 241 201 163 166 203 204 169 255 279 270 242 235 234 229 241 263 284 297 300 297 293 290 291 295 298 300 301 300 296 297 303 308
120 106 99 95 87 84 87 85 83 83 73 62 62 55 36 32 38 47 70 97 74 65 42 32 54 57 14 16 255 355 8 15 268 308 298 313 345 3 221 288 312 103 357 14 115 94 59 99 47 285 227 119 207 242 231 216 193 182 194 215 199 166 227 253 237 211 215 239 254 262 272 283 288 288 284 279 283 290 294 295 295 295 293 293 299 306 309
131 123 113 101 90 83 77 69 64 60 57 65 72 48 24 29 40 47 60 68 67 76 114 58 52 67 28 286 268 340 1 356 272 282 261 258 294 211 201 299 339 161 211 24 80 95 105 107 34 273 163 136 234 225 190 171 182 193 206 213 197 179 201 229 241 254 266 272 271 271 274 273 269 272 274 270 276 285 286 285 290 293 291 295 302 307 309
143 136 117 93 83 75 65 56 47 47 66 109 107 38 26 27 33 37 48 56 55 55 68 85 76 66 184 216 266 331 349 353 335 331 300 269 300 263 208 295 300 183 155 49 66 139 266 92 116 240 231 218 215 196 169 164 182 191 194 197 187 183 203 227 244 274 298 300 287 269 263 260 255 261 273 278 281 284 282 283 289 290 291 296 300 304 306
150 141 93 50 63 73 72 58 51 78 101 113 128 7 14 27 50 38 28 29 34 37 50 78 89 34 6 210 301 331 340 335 329 335 321 305 326 314 210 349 13 181 229 321 146 146 21 83 188 247 261 259 214 194 187 179 180 186 184 183 188 196 207 213 208 217 281 304 297 272 271 285 282 273 269 276 286 286 283 286 290 289 288 290 293 298 300
155 145 26 39 65 60 109 115 105 132 143 94 17 22 11 7 27 31 358 6 35 25 28 62 83 46 344 262 309 348 11 6 308 322 340 333 328 343 115 344 15 41 325 288 181 94 359 264 221 267 268 258 235 210 189 174 176 193 194 196 207 215 215 216 215 214 224 248 264 267 269 276 281 283 282 284 288 286 285 287 290 290 291 292 294 295 294
164 161 28 83 110 110 135 144 141 157 175 335 11 35 45 19 28 358 309 38 55 10 5 73 127 181 136 152 234 325 16 34 13 297 325 301 283 268 110 299 355 49 320 268 268 49 350 262 274 296 258 227 209 190 167 164 184 199 198 205 218 222 221 226 230 233 238 249 263 270 269 266 268 273 278 283 284 285 287 288 289 290 292 293 293 292 291
182 206 190 152 146 137 133 129 121 130 153 64 39 43 29 16 24 357 59 62 51 290 183 103 137 261 105 150 221 267 352 25 70 145 293 288 288 314 312 279 321 56 247 252 267 55 27 269 267 263 239 205 185 171 163 173 196 201 200 210 219 220 225 234 239 242 248 255 263 269 272 272 272 271 273 276 277 278 282 287 289 291 291 290 291 292 293
210 204 158 131 127 128 124 103 79 64 55 56 54 37 8 310 279 344 56 91 301 272 187 128 167 234 205 196 213 230 269 359 50 92 262 285 312 356 125 267 344 308 234 251 18 66 357 275 267 255 229 186 166 165 173 189 202 198 200 212 220 223 229 236 241 246 249 253 261 269 273 276 276 277 278 280 280 279 280 283 286 290 292 294 294 294 295
185 161 138 120 111 107 80 37 44 58 56 52 47 8 344 349 40 48 288 247 27 27 164 200 264 290 181 170 194 224 230 223 181 111 207 272 320 4 32 335 285 218 218 319 45 133 223 241 243 236 212 183 177 185 192 198 201 201 211 223 229 231 235 239 245 254 259 260 264 271 275 276 278 281 283 283 281 281 283 285 287 291 296 298 297 296 298
141 133 114 81 47 46 59 347 350 70 73 50 77 100 348 330 303 204 234 274 181 161 129 48 30 4 341 70 150 234 256 247 172 67 298 277 331 19 54 239 242 222 125 27 207 221 242 251 237 213 194 195 210 215 209 201 195 198 215 231 231 230 238 245 247 254 262 264 267 272 276 277 281 286 288 287 285 284 287 291 295 298 299 298 297 299 304
133 91 31 29 345 331 34 347 348 58 102 181 175 162 174 215 216 196 215 245 154 147 121 83 91 167 262 257 161 167 306 336 12 335 312 9 3 312 215 225 261 351 38 294 258 256 263 259 236 205 207 224 232 227 217 211 203 193 202 249 251 240 237 241 243 250 260 266 270 275 278 280 285 289 292 295 294 289 288 293 298 301 301 299 297 302 308
126 86 93 108 283 303 73 107 329 262 171 186 180 166 172 165 141 157 202 235 113 119 122 114 120 156 254 272 138 132 342 6 347 250 192 70 328 258 225 190 358 27 18 278 261 253 244 234 213 193 200 211 214 211 209 207 196 183 189 235 252 241 233 238 248 258 265 271 275 278 279 282 286 289 293 298 300 297 294 296 298 298 296 294 295 301 307
99 65 89 110 263 301 147 177 222 224 171 138 91 91 113 119 116 119 132 38 104 111 113 111 121 156 210 211 98 120 144 87 335 266 207 146 229 267 25 51 247 212 205 237 244 245 240 223 193 181 189 190 190 199 210 210 199 197 211 234 247 248 249 252 257 263 269 274 278 279 281 284 289 291 294 298 301 303 304 304 301 296 293 292 296 302 306
132 98 87 171 211 238 201 175 161 112 75 63 73 95 124 133 128 131 153 120 111 112 116 123 121 137 237 105 101 220 222 109 38 269 204 129 213 307 16 349 277 249 209 211 226 237 229 204 185 179 184 183 181 193 210 213 206 206 217 231 242 248 253 255 256 263 270 273 274 278 283 288 292 293 294 296 300 305 311 308 302 300 299 297 299 303 305
100 96 98 140 180 173 139 150 182 116 110 108 122 159 163 143 131 140 148 129 107 104 122 145 138 141 249 51 91 207 241 197 197 264 326 65 187 219 188 259 280 272 237 222 228 230 212 188 163 157 174 189 195 204 219 223 217 215 220 229 238 245 251 254 258 267 273 273 274 279 286 290 291 292 292 293 296 303 309 308 303 301 300 296 295 299 303
71 92 114 128 161 177 158 160 249 225 176 164 204 207 175 154 149 157 155 140 112 103 116 134 140 149 157 81 68 335 258 219 176 162 217 223 211 183 177 224 240 238 227 223 219 205 188 168 152 170 200 212 213 217 224 226 225 225 230 237 242 245 249 254 260 268 273 276 278 283 285 287 290 292 291 292 296 302 307 310 308 303 299 296 296 298 302
45 59 161 159 189 191 172 157 182 213 195 186 196 189 168 156 165 166 157 144 123 114 133 149 130 91 67 54 188 219 234 207 138 180 225 223 182 150 182 229 236 226 215 217 211 190 176 167 168 186 205 216 220 221 225 229 231 233 237 242 244 246 250 255 260 267 274 279 283 283 285 289 293 294 292 294 298 302 307 313 318 315 307 306 307 306 306
133 174 195 34 352 264 201 150 136 168 154 138 147 161 156 150 150 152 150 144 131 127 142 138 112 110 144 236 218 188 153 69 224 233 235 227 189 178 199 223 229 210 199 208 213 191 180 183 189 191 195 204 215 221 224 228 232 238 243 246 248 250 253 256 259 267 275 281 283 285 289 292 293 291 292 294 294 295 298 306 315 315 307 305 308 308 306